Weather History for Watertown, NY

Change the Weather History Date:

Saturday, September 15, 2012

  Actual Average Record
Temperature  
Mean Temperature 57 °F 60 °F  
Max Temperature 66 °F 71 °F 83 °F (1971)
Min Temperature 47 °F 49 °F 33 °F (1988)
Degree Days  
Heating Degree Days 8 6  
Month to date heating degree days 37 66  
Since 1 July heating degree days 55 138  
Cooling Degree Days 0 1  
Month to date cooling degree days 43 25  
Year to date cooling degree days 605 349  
Growing Degree Days 6 (Base 50)    
Moisture  
Dew Point 50 °F    
Average Humidity 75    
Maximum Humidity 93    
Minimum Humidity 56    
Precipitation  
Precipitation 0.00 in 0.13 in 1.10 in (1952)
Month to date precipitation 3.63 1.68  
Year to date precipitation 25.25 23.48  
Sea Level Pressure  
Sea Level Pressure 30.14 in    
Wind  
Wind Speed 6 mph (WNW)    
Max Wind Speed 13 mph    
Max Gust Speed 20 mph    
Visibility 10 miles    
Events      
T = Trace of Precipitation, MM = Missing Value Source: NWS Daily Summary

Daily Weather History Graph

Daily Weather History Graph

Search for Another Location

Airport:

Trip Planner

Search our weather history database for the weather conditions in past years. The results will help you decide how hot, cold, wet, or windy it might be!

Date:

Astronomy

Sep. 15, 2012 Rise Set
Actual Time 6:43 AM EDT 7:13 PM EDT
Civil Twilight 6:14 AM EDT 7:42 PM EDT
Nautical Twilight 5:40 AM EDT 8:16 PM EDT
Astronomical Twilight 5:05 AM EDT 8:51 PM EDT
Moon 6:12 AM EDT (9/15) 6:40 PM EDT (9/15)
Length of Visible Light 13h 27m
Length of Day
12h 29m
Waning Crescent, 0% of the Moon is Illuminated
Sep 15
Waning Crescent
Sep 15
New
Sep 22
First Quarter
Sep 29
Full
Oct 8
Last Quarter

Hourly Weather History & Observations

Time (EDT) Temp. Dew Point Humidity Pressure Visibility Wind Dir Wind Speed Gust Speed Precip Events Conditions
12:56 AM 57.9 °F 54.0 °F 87% 30.11 in 10.0 mi West 8.1 mph - N/A   Clear
1:56 AM 57.0 °F 53.1 °F 87% 30.10 in 10.0 mi West 8.1 mph - N/A   Partly Cloudy
2:56 AM 55.9 °F 52.0 °F 87% 30.10 in 10.0 mi West 6.9 mph - N/A   Partly Cloudy
3:56 AM 54.0 °F 51.1 °F 90% 30.11 in 10.0 mi West 8.1 mph - N/A   Clear
4:56 AM 53.1 °F 50.0 °F 89% 30.12 in 10.0 mi West 5.8 mph - N/A   Clear
5:56 AM 52.0 °F 48.9 °F 89% 30.14 in 10.0 mi West 3.5 mph - N/A   Clear
6:56 AM 51.1 °F 48.9 °F 92% 30.16 in 10.0 mi West 4.6 mph - N/A   Partly Cloudy
7:56 AM 55.0 °F 50.0 °F 83% 30.17 in 10.0 mi WNW 4.6 mph - N/A   Clear
8:56 AM 57.9 °F 51.1 °F 78% 30.18 in 10.0 mi NW 4.6 mph - N/A   Clear
9:44 AM 60.8 °F 51.8 °F 72% 30.19 in 10.0 mi NNW 9.2 mph - N/A   Mostly Cloudy
9:56 AM 60.1 °F 50.0 °F 69% 30.19 in 10.0 mi North 11.5 mph - N/A   Mostly Cloudy
10:31 AM 60.8 °F 50.0 °F 68% 30.19 in 10.0 mi North 8.1 mph - N/A   Scattered Clouds
10:56 AM 62.1 °F 48.9 °F 62% 30.18 in 10.0 mi NNE 5.8 mph - N/A   Scattered Clouds
11:56 AM 64.0 °F 48.9 °F 58% 30.18 in 10.0 mi Variable 5.8 mph - N/A   Scattered Clouds
12:56 PM 63.0 °F 48.0 °F 58% 30.17 in 10.0 mi WNW 6.9 mph - N/A   Mostly Cloudy
1:56 PM 63.0 °F 51.1 °F 65% 30.17 in 10.0 mi WSW 11.5 mph - N/A   Mostly Cloudy
2:56 PM 63.0 °F 50.0 °F 63% 30.15 in 10.0 mi WSW 8.1 mph - N/A   Overcast
3:56 PM 64.0 °F 50.0 °F 60% 30.14 in 10.0 mi WSW 10.4 mph - N/A   Overcast
4:56 PM 63.0 °F 52.0 °F 67% 30.12 in 10.0 mi WSW 6.9 mph - N/A   Mostly Cloudy
5:56 PM 62.1 °F 52.0 °F 70% 30.11 in 10.0 mi WSW 6.9 mph - N/A   Scattered Clouds
6:56 PM 61.0 °F 51.1 °F 70% 30.11 in 10.0 mi WSW 4.6 mph - N/A   Partly Cloudy
7:56 PM 55.9 °F 50.0 °F 80% 30.10 in 10.0 mi Calm Calm - N/A   Partly Cloudy
8:56 PM 51.1 °F 48.9 °F 92% 30.10 in 10.0 mi Calm Calm - N/A   Clear
9:56 PM 48.9 °F 46.9 °F 93% 30.10 in 10.0 mi Calm Calm - N/A   Clear
10:56 PM 54.0 °F 48.0 °F 80% 30.12 in 10.0 mi NNE 10.4 mph - N/A   Partly Cloudy
11:56 PM 51.1 °F 46.0 °F 83% 30.13 in 10.0 mi NNE 5.8 mph - N/A   Partly Cloudy